< Cyclone 199605 1996 Season Cyclone 199607 >
Cyclone 199606 (HUBERT)
General InformationDetailed Track InformationTrack Information on Google MapsList of All Images || ResourceGoogle EarthGE AnimationAtom FeedGeoJSON
Detalied Best Track Wind (Time Zone = UTC)
Year Month Day Hour Lat. Long. Wind (kt) Gust (kt) Direc. of Major Storm Axis Radius of Major Storm Axis (nm) Radius of Minor Storm Axis (nm) Direc. of Major Gale Axis Radius of Major Gale Axis (nm) Radius of Minor Gale Axis (nm) Image
1996 1 6 22 -10.1 99.6 0 -1 symmetric - - symmetric - - Image
1996 1 7 01 -10.2 99.1 21 -1 symmetric - - symmetric - - Image
1996 1 7 04 -10.4 98.8 23 -1 symmetric - - symmetric - - Image
1996 1 7 07 -10.6 98.5 27 -1 symmetric - - symmetric - - Image
1996 1 7 10 -10.8 98.2 29 -1 symmetric - - symmetric - - Image
1996 1 7 13 -10.9 97.8 35 -1 symmetric - - symmetric - - Image
1996 1 7 16 -11.0 97.5 41 -1 symmetric - - symmetric - - Image
1996 1 7 19 -11.1 97.1 47 -1 symmetric - - symmetric - - Image
1996 1 7 22 -11.2 96.7 54 -1 symmetric - - symmetric - - Image
1996 1 8 01 -11.3 96.4 60 -1 symmetric - - symmetric - - Image
1996 1 8 04 -11.4 96.0 66 -1 symmetric - - symmetric - - Image
1996 1 8 07 -11.7 95.6 66 -1 symmetric - - symmetric - - Image
1996 1 8 10 -11.9 95.2 70 -1 symmetric - - symmetric - - Image
1996 1 8 13 -12.1 94.5 70 -1 symmetric - - symmetric - - Image
1996 1 8 16 -12.4 94.0 70 -1 symmetric - - symmetric - - Image
1996 1 8 19 -12.8 93.5 70 -1 symmetric - - symmetric - - Image
1996 1 8 22 -13.1 92.9 76 -1 symmetric - - symmetric - - Image
1996 1 9 01 -13.5 92.4 76 -1 symmetric - - symmetric - - Image
1996 1 9 04 -13.6 91.8 76 -1 symmetric - - symmetric - - Image
1996 1 9 07 -13.7 91.3 80 -1 symmetric - - symmetric - - Image
1996 1 9 10 -13.7 90.8 76 -1 symmetric - - symmetric - - Image
1996 1 9 13 -13.7 90.3 70 -1 symmetric - - symmetric - - Image
1996 1 9 16 -13.8 89.8 66 -1 symmetric - - symmetric - - Image
1996 1 9 19 -13.9 89.3 60 -1 symmetric - - symmetric - - Image
1996 1 9 22 -14.1 88.8 60 -1 symmetric - - symmetric - - Image
1996 1 10 01 -14.3 88.3 54 -1 symmetric - - symmetric - - Image
1996 1 10 04 -14.5 87.7 54 -1 symmetric - - symmetric - - Image
1996 1 10 07 -14.7 87.1 47 -1 symmetric - - symmetric - - Image
1996 1 10 10 -14.7 86.3 47 -1 symmetric - - symmetric - - Image
1996 1 10 13 -14.7 85.9 41 -1 symmetric - - symmetric - - Image
1996 1 10 16 -14.6 85.3 41 -1 symmetric - - symmetric - - Image
1996 1 10 19 -14.5 84.8 41 -1 symmetric - - symmetric - - Image
1996 1 10 22 -14.4 84.3 41 -1 symmetric - - symmetric - - Image
1996 1 11 01 -14.3 83.8 41 -1 symmetric - - symmetric - - Image
1996 1 11 04 -14.3 83.2 35 -1 symmetric - - symmetric - - Image
1996 1 11 07 -14.5 82.5 35 -1 symmetric - - symmetric - - Image
1996 1 11 10 -14.6 81.8 35 -1 symmetric - - symmetric - - Image
1996 1 11 13 -14.7 81.1 29 -1 symmetric - - symmetric - - Image
1996 1 11 16 -14.7 80.4 29 -1 symmetric - - symmetric - - Image
1996 1 11 19 -14.8 79.7 29 -1 symmetric - - symmetric - - Image
1996 1 11 22 -14.8 79.0 29 -1 symmetric - - symmetric - - Image
1996 1 12 01 -14.9 78.3 27 -1 symmetric - - symmetric - - Image
1996 1 12 04 -14.9 77.6 27 -1 symmetric - - symmetric - - Image
1996 1 12 07 -14.9 76.9 27 -1 symmetric - - symmetric - - Image
1996 1 12 10 -14.9 76.2 27 -1 symmetric - - symmetric - - Image
1996 1 12 13 -14.9 75.5 21 -1 symmetric - - symmetric - - Image
< Cyclone 199605 1996 Season Cyclone 199607 >

Help